When you browse on this site, cookies collect data to enhance your experience and personalize the content and advertising you see.
Visit our Privacy Policy to learn more. By continuing to use the site, you agree to this use of cookies and data.
  • In Czech Republic
  • List of Countries
  • For 7 days
  • Water Temperature
  • Satellite Maps
  • Weather Map
  • Weather Widgets
  • user-avatar
    Login

    Hourly Weather Jinan

    Today, 25 March, Monday

    Time Temperature Precipitation Wind Pressure Humidity
    00:00 +12°C° 0 mm 5 mps 754 mmHg 45%
    01:00 +12°C° 0 mm 5 mps 754 mmHg 46%
    02:00 +11°C° 0 mm 4 mps 754 mmHg 49%
    03:00 +11°C° 0 mm 4 mps 754 mmHg 50%
    04:00 +10°C° 0 mm 4 mps 754 mmHg 52%
    05:00 +10°C° 0 mm 4 mps 754 mmHg 53%
    06:00 +10°C° 0 mm 4 mps 754 mmHg 53%
    07:00 +11°C° 0 mm 4 mps 754 mmHg 53%
    08:00 +12°C° 0 mm 4 mps 754 mmHg 50%
    09:00 +14°C° 0 mm 3 mps 754 mmHg 44%
    10:00 +17°C° 0 mm 3 mps 754 mmHg 39%
    11:00 +19°C° 0 mm 3 mps 755 mmHg 33%
    12:00 +20°C° 0 mm 3 mps 754 mmHg 28%
    13:00 +21°C° 0 mm 3 mps 754 mmHg 24%
    14:00 +24°C° 0 mm 3 mps 754 mmHg 19%
    15:00 +24°C° 0 mm 3 mps 754 mmHg 17%
    16:00 +24°C° 0 mm 3 mps 754 mmHg 15%
    17:00 +24°C° 0 mm 3 mps 753 mmHg 13%
    18:00 +21°C° 0 mm 2 mps 754 mmHg 14%
    19:00 +19°C° 0 mm 2 mps 754 mmHg 15%
    20:00 +19°C° 0 mm 1 mps 754 mmHg 16%
    21:00 +17°C° 0 mm 2 mps 754 mmHg 17%
    22:00 +17°C° 0 mm 2 mps 755 mmHg 18%
    23:00 +16°C° 0 mm 3 mps 755 mmHg 18%

    Tomorrow, 26 March, Tuesday

    Time Temperature Precipitation Wind Pressure Humidity
    00:00 +16°C° 0 mm 3 mps 755 mmHg 20%
    01:00 +14°C° 0 mm 3 mps 755 mmHg 22%
    02:00 +14°C° 0 mm 3 mps 755 mmHg 24%
    03:00 +13°C° 0 mm 3 mps 755 mmHg 27%
    04:00 +13°C° 0 mm 3 mps 755 mmHg 30%
    05:00 +12°C° 0 mm 3 mps 755 mmHg 33%
    06:00 +12°C° 0 mm 3 mps 755 mmHg 34%
    07:00 +13°C° 0 mm 3 mps 756 mmHg 36%
    08:00 +13°C° 0 mm 3 mps 756 mmHg 37%
    09:00 +17°C° 0 mm 3 mps 756 mmHg 32%
    10:00 +19°C° 0 mm 3 mps 756 mmHg 26%
    11:00 +22°C° 0 mm 3 mps 756 mmHg 21%
    12:00 +23°C° 0 mm 4 mps 756 mmHg 17%
    13:00 +25°C° 0 mm 4 mps 755 mmHg 13%
    14:00 +26°C° 0 mm 5 mps 755 mmHg 10%
    15:00 +26°C° 0 mm 4 mps 754 mmHg 10%
    16:00 +26°C° 0 mm 4 mps 754 mmHg 11%
    17:00 +26°C° 0 mm 4 mps 753 mmHg 11%
    18:00 +23°C° 0 mm 4 mps 754 mmHg 16%
    19:00 +22°C° 0 mm 4 mps 754 mmHg 22%
    20:00 +20°C° 0 mm 3 mps 754 mmHg 28%
    21:00 +20°C° 0 mm 4 mps 754 mmHg 33%
    22:00 +19°C° 0 mm 5 mps 754 mmHg 38%
    23:00 +19°C° 0 mm 6 mps 754 mmHg 43%

    Day after tomorrow, 27 March, Wednesday

    Time Temperature Precipitation Wind Pressure Humidity
    00:00 +19°C° 0 mm 6 mps 754 mmHg 45%
    01:00 +17°C° 0 mm 6 mps 754 mmHg 47%
    02:00 +17°C° 0 mm 6 mps 753 mmHg 49%
    03:00 +16°C° 0 mm 5 mps 753 mmHg 50%
    04:00 +16°C° 0 mm 5 mps 753 mmHg 52%
    05:00 +15°C° 0 mm 4 mps 753 mmHg 53%
    06:00 +17°C° 0 mm 4 mps 753 mmHg 51%
    07:00 +17°C° 0 mm 3 mps 754 mmHg 49%
    08:00 +18°C° 0 mm 3 mps 754 mmHg 47%
    09:00 +20°C° 0 mm 3 mps 755 mmHg 36%
    10:00 +22°C° 0 mm 3 mps 755 mmHg 26%
    11:00 +25°C° 0 mm 4 mps 755 mmHg 16%
    12:00 +25°C° 0 mm 4 mps 755 mmHg 15%
    13:00 +26°C° 0 mm 4 mps 754 mmHg 14%
    14:00 +26°C° 0 mm 4 mps 754 mmHg 14%
    15:00 +23°C° 0 mm 6 mps 754 mmHg 18%
    16:00 +21°C° 0 mm 7 mps 754 mmHg 22%
    17:00 +18°C° 0 mm 8 mps 755 mmHg 26%
    18:00 +16°C° 0 mm 8 mps 755 mmHg 27%
    19:00 +13°C° 0 mm 8 mps 756 mmHg 29%
    20:00 +10°C° 0 mm 7 mps 757 mmHg 31%
    21:00 +10°C° 0 mm 7 mps 757 mmHg 31%
    22:00 +9°C° 0 mm 7 mps 758 mmHg 31%
    23:00 +9°C° 0 mm 7 mps 758 mmHg 31%

    28 March, Thursday

    Time Temperature Precipitation Wind Pressure Humidity
    00:00 +8°C° 0 mm 6 mps 758 mmHg 31%
    01:00 +8°C° 0 mm 6 mps 758 mmHg 31%
    02:00 +8°C° 0 mm 6 mps 758 mmHg 31%
    03:00 +7°C° 0 mm 6 mps 758 mmHg 31%
    04:00 +7°C° 0 mm 5 mps 758 mmHg 32%
    05:00 +7°C° 0 mm 5 mps 758 mmHg 32%
    06:00 +7°C° 0 mm 5 mps 759 mmHg 31%
    07:00 +7°C° 0 mm 5 mps 759 mmHg 30%
    08:00 +8°C° 0 mm 5 mps 759 mmHg 29%
    09:00 +9°C° 0 mm 5 mps 759 mmHg 26%
    10:00 +12°C° 0 mm 5 mps 759 mmHg 23%
    11:00 +13°C° 0 mm 4 mps 759 mmHg 20%
    12:00 +14°C° 0 mm 3 mps 758 mmHg 20%
    13:00 +16°C° 0 mm 3 mps 757 mmHg 20%
    14:00 +16°C° 0 mm 2 mps 757 mmHg 20%
    15:00 +16°C° 0 mm 2 mps 756 mmHg 22%
    16:00 +16°C° 0 mm 1 mps 756 mmHg 24%
    17:00 +16°C° 0 mm 1 mps 756 mmHg 26%
    18:00 +15°C° 0 mm 1 mps 756 mmHg 29%
    19:00 +14°C° 0 mm 2 mps 757 mmHg 32%
    20:00 +13°C° 0 mm 2 mps 757 mmHg 35%
    21:00 +12°C° 0 mm 2 mps 757 mmHg 38%
    22:00 +10°C° 0 mm 2 mps 757 mmHg 42%
    23:00 +9°C° 0 mm 2 mps 757 mmHg 45%

    29 March, Friday

    Time Temperature Precipitation Wind Pressure Humidity
    00:00 +8°C° 0 mm 2 mps 757 mmHg 48%
    01:00 +8°C° 0 mm 2 mps 757 mmHg 52%
    02:00 +8°C° 0 mm 1 mps 757 mmHg 55%
    03:00 +8°C° 0 mm 1 mps 757 mmHg 57%
    04:00 +8°C° 0 mm 1 mps 757 mmHg 59%
    05:00 +7°C° 0 mm 1 mps 757 mmHg 61%
    06:00 +8°C° 0 mm 1 mps 757 mmHg 59%
    07:00 +8°C° 0 mm 0 mps 758 mmHg 57%
    08:00 +9°C° 0 mm 0 mps 758 mmHg 55%
    09:00 +11°C° 0 mm 1 mps 758 mmHg 52%
    10:00 +13°C° 0 mm 1 mps 758 mmHg 49%
    11:00 +14°C° 0 mm 2 mps 759 mmHg 46%
    12:00 +15°C° 0.2 mm 2 mps 758 mmHg 45%
    13:00 +16°C° 0.2 mm 2 mps 757 mmHg 43%
    14:00 +17°C° 0.2 mm 3 mps 757 mmHg 42%
    15:00 +17°C° 0.2 mm 3 mps 756 mmHg 36%
    16:00 +17°C° 0.2 mm 3 mps 756 mmHg 31%
    17:00 +18°C° 0.2 mm 3 mps 756 mmHg 26%
    18:00 +16°C° 0 mm 3 mps 756 mmHg 27%
    19:00 +15°C° 0 mm 2 mps 757 mmHg 27%
    20:00 +14°C° 0 mm 2 mps 757 mmHg 28%
    21:00 +12°C° 0 mm 3 mps 758 mmHg 24%
    22:00 +10°C° 0 mm 5 mps 759 mmHg 21%
    23:00 +9°C° 0 mm 7 mps 760 mmHg 17%

    30 March, Saturday

    Time Temperature Precipitation Wind Pressure Humidity
    00:00 +8°C° 0 mm 6 mps 760 mmHg 21%
    01:00 +7°C° 0 mm 6 mps 761 mmHg 25%
    02:00 +6°C° 0 mm 5 mps 761 mmHg 29%
    03:00 +5°C° 0 mm 4 mps 762 mmHg 33%
    04:00 +5°C° 0 mm 3 mps 762 mmHg 36%
    05:00 +5°C° 0 mm 2 mps 762 mmHg 39%
    06:00 +5°C° 0 mm 3 mps 763 mmHg 34%
    07:00 +5°C° 0 mm 4 mps 763 mmHg 29%
    08:00 +6°C° 0 mm 4 mps 764 mmHg 23%
    09:00 +7°C° 0 mm 5 mps 764 mmHg 21%
    10:00 +9°C° 0 mm 6 mps 764 mmHg 18%
    11:00 +10°C° 0 mm 6 mps 763 mmHg 15%
    12:00 +10°C° 0 mm 6 mps 763 mmHg 15%
    13:00 +11°C° 0 mm 6 mps 762 mmHg 15%
    14:00 +11°C° 0 mm 6 mps 762 mmHg 15%
    15:00 +11°C° 0 mm 6 mps 762 mmHg 15%
    16:00 +11°C° 0 mm 6 mps 761 mmHg 15%
    17:00 +12°C° 0 mm 5 mps 761 mmHg 15%
    18:00 +11°C° 0 mm 4 mps 761 mmHg 16%
    19:00 +10°C° 0 mm 2 mps 762 mmHg 18%
    20:00 +9°C° 0 mm 0 mps 762 mmHg 19%
    21:00 +9°C° 0 mm 1 mps 762 mmHg 19%
    22:00 +9°C° 0 mm 1 mps 762 mmHg 20%
    23:00 +8°C° 0 mm 2 mps 762 mmHg 20%
    Show more